DELTA 1 DEB, 14497

Orbit data source: Space-Track

DELTA 1 DEB, 14497 is space debris in LEO originally from a launch on Thu, 14 Jul 1977 UTC launched from the Air Force Eastern Test Range (AFETR). Debris objects in space refer to the collection of defunct objects orbiting the Earth. Examples of debris include non-operational satellites, rocket bodies, and fragments generated from explosions, collisions, or faulty payload assembly.

Loading next visibility...
Identifier
14497, 1977-065FN
Orbit
LEO
Country
Flag of USUS
Related business
Manufacturer
Unknown
Mission
Spacecraft
Bus & Motor
Unknown
Mass
Unknown
Launch date (UTC)
1977-07-14 (49 years ago)
Launch vehicle
Unknown
Launch site
Air Force Eastern Test Range (AFETR)
Object type
Payload
Rocket body
Debris
Shape & HBR
Unknown shape, 0.1 m
Radar Cross Section
Medium (>0.1 m² and <1 m²)

Expand to show TLE details & history
Last TLE update: 1 week ago

TLE from 1 week ago
0 DELTA 1 DEB
1 14497U 77065FN  26256.78219983  .00000372  00000-0  10697-2 0  9995
2 14497  29.3009  57.2201 0886577 304.8229  66.7110 12.08215046991768
Epoch: 2026-09-13T18:46Z
TLE epoch observation values (Epoch: 2026-09-13T18:46:22.065Z)
Latitude
10.24317°
Longitude
161.54375°
Altitude
1,416.829 km
Speed
7.254 km/s
True Right ascension
05h 03m 37s
True Declination
10° 11' 18"
Sunlit
Object was in daylight at epoch
Visualization orbit readout
Latitude
Unknown
Longitude
Unknown
Altitude
Unknown
Speed
Unknown
Apparent Right ascension
Unknown
Apparent Declination
Unknown
Sunlit
N/A
Visualization observer readout
Local Sidereal Time
02:42:38
Azimuth
Unknown
Elevation
Unknown
Doppler factor
Unknown
Orbital elements
Apogee altitude
2,359.42 km
Perigee altitude
936.288 km
Semi-major axis
8,025.991 km
Eccentricity
0.08866
Inclination
29.3009°
RAAN
57.2201°
Arg. of periapsis
304.8229°
True anomaly
76.42249°
Mean anomaly
66.711°
Eccentric anomaly
71.52903°
Mean motion
3.01853 °/min
Orbital period
119.26 mins
BSTAR
0.0010697
Loading maneuver chart data...
Computing Atmospheric mass density...

Documentation

Showing up to 5 results
|